STARLINK-32013, 60103

Orbit data source: Space-Track

STARLINK-32013, 60103 is a payload satellite owned by SpaceX/Seattle (US) in LEO that was launched on Sun, 23 Jun 2024 UTC via an FALCON 9 launch vehicle from the Air Force Eastern Test Range (AFETR). Payload-class satellites include a variety of spacecraft equipped with specific instruments for various scientific and technological missions. These include communications satellites like Starlink; space stations such as the ISS; scientific satellites like the Hubble; Earth observation satellites from companies like Planet Labs, Umbra, and HawkEye 360; GPS; miniature CubeSats for education and research; and military/defense satellites.

Loading next visibility...
Identifier
60103, 2024-117N
Orbit
LEO
Country
Flag of USUS
Related business
Manufacturer
SpaceX/Seattle
Mission
Operational Commercial Communications
Bus & Motor
STARLINK V2M, Unknown motor
Mass
730 kg wet, ~700 kg dry
Launch date (UTC)
2024-06-23 (2 years ago)
Launch vehicle
FALCON 9
Launch site
Air Force Eastern Test Range (AFETR)
Object type
Payload
Rocket body
Debris
Shape & HBR
Box + 2 Pan, 17.7 m
Radar Cross Section
33.884 m², Large (>1 m²)

Expand to show TLE details & history
Last TLE update: 1 day ago

TLE from 1 day ago
0 STARLINK-32013
1 60103U 24117N   26170.57695306 -.00002105  00000-0 -59003-4 0  9993
2 60103  53.1608 284.0275 0001050  89.8187 270.2934 15.30185213112482
Epoch: 2026-06-19T13:50Z
TLE epoch observation values (Epoch: 2026-06-19T13:50:48.744Z)
Latitude
-0.00002°
Longitude
168.52045°
Altitude
476.155 km
Speed
7.629 km/s
True Right ascension
18h 56m 06s
True Declination
0° 00' 00"
Sunlit
Object was in full shadow at epoch
Visualization orbit readout
Latitude
Unknown
Longitude
Unknown
Altitude
Unknown
Speed
Unknown
Apparent Right ascension
Unknown
Apparent Declination
Unknown
Sunlit
N/A
Visualization observer readout
Local Sidereal Time
07:17:32
Azimuth
Unknown
Elevation
Unknown
Doppler factor
Unknown
Orbital elements
Apogee altitude
476.235 km
Perigee altitude
474.796 km
Semi-major axis
6,853.653 km
Eccentricity
0.00011
Inclination
53.1608°
RAAN
284.0275°
Arg. of periapsis
89.8187°
True anomaly
270.28137°
Mean anomaly
270.2934°
Eccentric anomaly
270.28738°
Mean motion
3.82525 °/min
Orbital period
94.11 mins
BSTAR
-0.000059003
Loading maneuver chart data...
Computing Atmospheric mass density...
Loading historical data...
Loading historical data...
Loading historical data...
Loading historical data...
Loading historical data...
Loading historical data...
Loading historical data...

Documentation

Showing up to 5 results
|